SCP
-0 -0 -0 0 -0 -0 -0 -0 0 -0 -0 0 0 0 0 0 0 0 0 0 0 0 0 0 0 0 0 -0 -0 -0 -0 -0 -0 -0 -0 -0 -0 -0 -0 -0 -0 -0 -0 -0 -0 -0 -0 -0 -0
0 0 0 0 -0 -0 -0 -0 -0 0 0 0 0 0 0 0 0 0 0 0 0 0 0 0 0 0 0 0 0 0 0 -0 -0 -0 -0 -0 -0 -0 -0 -0 -0 -0 -0 -0 -0 -0 -0 -0 -0
0 0 0 -0 -0 -0 -0 0 0 0 0 0 0 0 0 0 0 0 0 0 -0 0 0 0 0 0 0 0 0 0 0 0 -0 -0 -0 -0 -0 -0 -0 -0 -0 -0 -0 -0 -0 -0 -0 -0 -0
0 0 0 -0 -0 0 0 0 0 0 0 0 0 -0 0 0 0 0 0 -0 -0 0 0 0 0 0 0 0 0 0 0 0 0 -0 -0 -0 -0 -0 -0 -0 -0 -0 -0 -0 -0 -0 -0 -0 -0
0 0 0 -0 0 0 0 0 0 0 -0 0 0 0 -0 0 -0 0 -0 -0 -0 -0 -0 0 -0 0 0 0 0 0 0 0 0 0 -0 -0 -0 -0 -0 -0 -0 -0 -0 -0 -0 -0 -0 -0 -0
0 0 0 -0 0 0 0 0 0 -0 0 -0 -0 -0 -0 0 0 0 -0 -0 -0 -0 -0 -0 -0 -0 -0 -0 -0 0 0 0 0 -0 -0 -0 -0 -0 -0 -0 -0 -0 -0 -0 -0 -0 -0 -0 -0
0 0 0 0 0 0 0 0 0 -0 -0 0 0 -0 0 0 -0 0 0 -0 -0 -0 -0 -0 -0 -0 -0 -0 -0 -0 -0 -0 -0 -0 -0 -0 -0 -0 -0 -0 -0 -0 -0 -0 -0 -0 -0 -0 -0
0 0 0 0 0 0 0 0 0 -0 0 0 0 0 0 0 -0 0 0 -0 -0 -0 -0 -0 -0 -0 -0 -0 -0 -0 -0 -0 -0 -0 -0 -0 -0 -0 -0 -0 -0 -0 -0 -0 -0 -0 -0 -0 -0
0 0 0 0 0 0 0 0 0 0 -0 0 -0 -0 0 -0 -0 -0 0 0 -0 -0 -0 -0 -0 -0 -0 -0 0 -0 -0 -0 -0 -0 -0 -0 -0 -0 -0 -0 -0 -0 -0 -0 -0 -0 -0 -0 -0
0 0 0 0 0 0 0 0 -0 -0 -0 -0 -0 -0 0 -0 -0 -0 -0 -0 -0 -0 -0 -0 -0 -0 -0 0 -0 -0 0 0 0 0 0 0 0 0 0 0 0 0 0 0 0 0 0 0 0
0 0 0 0 0 0 0 0 0 -0 -0 -0 -0 -0 -0 -0 -0 -0 -0 -0 -0 -0 -0 -0 -0 -0 -0 0 0 0 0 0 0 0 0 0 0 0 0 0 0 0 0 0 0 0 0 0 0
0 0 0 0 0 0 0 0 0 -0 -0 0 -0 0 0 -0 -0 -0 -0 -0 -0 -0 -0 -0 -0 0 0 0 0 0 0 0 0 0 0 0 0 0 0 0 0 0 0 0 0 0 0 0 0
0 0 0 0 0 0 0 0 0 -0 -0 0 0 0 0 0 0 0 0 0 -0 -0 -0 -0 -0 -0 0 0 0 0 0 0 0 0 0 0 0 0 0 0 0 0 0 0 0 0 0 0 0
0 0 0 0 0 0 0 0 0 0 0 0 0 0 0 0 0 0 0 0 -0 -0 -0 -0 -0 -0 -0 -0 -0 0 0 0 0 0 0 0 0 0 0 0 0 0 0 0 0 0 0 0 0
0 0 0 0 0 0 0 0 0 0 0 0 0 0 0 -0 0 0 0 0 -0 -0 -0 -0 -0 -0 -0 -0 -0 0 0 0 0 0 0 0 0 0 0 0 0 0 0 0 0 0 0 0 0
0 0 0 0 0 0 0 0 0 0 0 0 0 0 0 -0 0 0 0 0 0 0 0 -0 -0 -0 -0 -0 0 0 0 0 0 0 0 0 0 0 0 0 0 0 0 0 0 0 0 0 0
0 0 0 0 0 0 0 0 0 0 0 0 0 0 0 0 0 0 0 0 0 0 0 0 -0 -0 -0 -0 0 0 0 0 0 0 0 0 0 0 0 0 0 0 0 0 0 0 0 0 0
0 0 0 0 0 0 0 0 0 0 0 0 0 0 0 0 0 0 0 0 0 0 0 0 0 0 -0 0 0 0 0 0 0 0 0 0 0 0 0 0 0 0 0 0 0 0 0 0 0
0 0 0 0 0 0 0 0 0 0 0 0 0 0 0 0 0 -0 0 0 0 0 0 0 0 0 0 0 0 0 0 0 0 0 0 0 0 0 0 0 0 0 0 0 0 0 0 0 0
0 0 0 0 0 0 0 0 0 0 0 0 0 0 0 0 0 0 0 0 0 0 0 0 0 0 0 0 0 0 0 0 0 0 0 0 0 0 0 0 0 0 0 0 0 0 0 0 0
0 0 0 0 0 0 0 0 0 0 0 0 0 0 0 0 0 0 0 0 0 0 0 0 0 0 0 0 0 0 0 0 0 0 0 0 0 0 0 0 0 0 0 0 0 0 0 0 0
0 0 0 0 0 0 0 0 0 0 0 0 0 0 0 0 0 0 0 0 0 0 0 0 0 0 0 0 0 0 0 0 0 0 0 0 0 0 0 0 0 0 0 0 0 0 0 0 0
0 0 0 0 0 0 0 0 0 0 0 0 0 0 0 0 0 0 0 0 0 0 0 0 0 0 0 0 0 0 0 0 0 0 0 0 0 0 0 0 0 0 0 0 0 0 0 0 0
0 0 0 0 0 0 0 0 0 0 0 0 0 0 0 0 0 0 0 0 0 0 0 0 0 0 0 0 0 0 0 0 0 0 0 0 0 0 0 0 0 0 0 0 0 0 0 0 0
0 0 0 0 0 0 0 0 0 0 0 0 0 0 0 0 0 0 0 0 0 0 0 0 0 0 0 0 0 0 0 0 0 0 0 0 0 0 0 0 0 0 0 0 0 0 0 0 0
0 0 0 0 0 0 0 0 0 0 0 0 0 0 0 0 0 0 0 0 0 0 0 0 0 0 0 0 0 0 0 0 0 0 0 0 0 0 0 0 0 0 0 0 0 0 0 0 0
0 0 0 0 0 0 0 0 0 0 0 0 0 0 0 0 0 0 0 0 0 0 0 0 0 0 0 0 0 0 0 0 0 0 0 0 0 0 0 0 0 0 0 0 0 0 0 0 0
0 0 0 0 0 0 0 0 0 0 0 0 0 0 0 0 0 0 0 0 0 0 0 0 0 0 0 0 0 0 0 0 0 0 0 0 0 0 0 0 0 0 0 0 0 0 0 0 0
0 0 0 0 0 0 0 0 0 0 0 0 0 0 0 0 0 0 0 0 0 0 0 0 0 0 0 0 0 0 0 0 0 0 0 0 0 0 0 0 0 0 0 0 0 0 0 0 0
0 0 0 0 0 0 0 0 0 0 0 0 0 0 0 0 0 0 0 0 0 0 0 0 0 0 0 0 0 0 0 0 0 0 0 0 0 0 0 0 0 0 0 0 0 0 0 0 0
Wind_Speed_500mb
8 7 5 3 6 8 3 6 0 6 7 7 18 10 11 8 8 5 22 45 43 42 38 32 28 23 20 20 20 20 20 19 21 20 20 22 24 28 29 27 28 34 34 32 28 30 26 24 23
9 8 6 6 7 4 6 3 10 9 8 20 16 12 5 4 10 13 41 45 46 38 37 32 29 24 20 19 19 20 20 19 19 19 18 21 22 25 29 24 25 29 35 31 30 30 28 26 25
11 13 7 8 6 7 8 8 9 9 28 12 8 3 4 7 10 30 36 40 49 38 33 30 28 25 21 19 18 19 18 18 18 19 21 17 21 23 27 23 21 22 29 29 26 28 27 27 27
14 11 9 7 6 5 4 7 12 19 8 8 9 7 6 9 16 25 39 39 47 40 33 30 28 24 21 19 18 18 17 16 17 17 20 16 17 19 22 22 18 19 24 23 25 25 26 27 27
18 7 8 6 4 4 5 6 25 9 9 11 13 7 6 9 18 29 36 40 44 42 35 30 27 24 21 18 17 15 15 14 15 16 18 15 13 14 16 17 14 15 18 19 21 23 24 26 28
7 6 8 4 5 3 1 15 16 8 9 12 9 16 9 19 20 23 39 37 41 41 36 32 28 25 21 18 16 14 13 12 12 13 15 14 9 9 11 13 11 12 13 13 16 20 22 24 25
11 7 9 8 4 2 8 20 12 14 11 11 10 9 11 25 25 26 36 34 39 39 35 34 30 28 23 18 16 14 12 11 10 10 10 9 5 7 9 11 9 9 10 12 15 17 20 22 23
11 11 8 4 8 7 11 17 5 14 11 11 15 7 8 33 28 32 36 37 37 41 37 35 33 31 29 24 20 17 14 12 10 9 7 6 4 2 5 7 6 7 9 10 13 15 17 18 18
13 9 6 12 13 7 17 10 8 8 8 16 17 7 9 31 34 35 41 46 44 44 44 40 38 35 32 28 24 21 19 16 13 11 9 7 4 1 3 3 2 4 6 9 12 14 13 13 13
9 8 16 11 9 10 22 12 19 8 9 13 16 18 12 29 36 38 46 55 55 51 50 46 43 40 37 33 30 26 23 20 16 13 11 9 7 4 4 4 2 3 5 8 10 11 10 10 8
7 10 11 10 9 14 20 8 16 13 7 22 29 28 23 30 37 36 39 46 52 51 51 49 47 45 42 40 36 33 30 26 23 19 17 14 11 7 5 4 4 4 5 7 9 7 7 7 6
11 5 14 12 12 13 15 14 8 21 10 8 21 21 29 31 37 38 37 41 46 48 47 45 45 47 46 43 41 39 37 34 30 26 23 20 16 11 5 3 6 7 7 7 6 7 6 5 5
7 10 11 12 13 11 11 7 10 23 30 25 12 23 29 33 33 35 35 36 40 43 41 42 43 45 45 45 45 44 43 40 35 32 29 26 22 17 11 5 6 11 9 8 8 6 5 4 3
8 16 9 8 7 6 6 3 2 6 12 34 30 24 27 33 34 37 42 39 42 41 42 40 41 41 42 41 38 36 38 41 41 39 35 31 28 24 21 16 7 12 11 10 11 9 8 6 5
17 10 7 1 3 3 3 7 17 22 14 8 22 31 29 30 37 38 36 40 38 40 42 44 43 43 45 44 40 39 36 33 38 41 41 38 35 32 29 27 20 14 15 15 12 12 12 13 13
11 10 8 2 4 1 7 15 6 3 18 27 22 22 30 36 38 34 38 41 44 45 48 47 48 50 49 49 47 44 43 40 35 35 38 43 42 39 38 35 30 26 22 23 21 20 21 22 23
13 8 6 5 7 0 5 11 4 3 4 9 16 21 19 21 28 29 33 42 44 47 48 51 53 55 54 54 54 52 51 49 44 39 37 35 42 44 44 41 37 37 35 31 33 35 35 32 32
12 5 4 7 4 1 5 17 17 28 21 21 25 29 32 34 35 32 36 39 41 45 52 55 57 57 59 59 60 61 61 60 56 51 44 40 39 43 46 47 45 47 47 49 46 49 46 45 42
14 9 7 4 2 4 10 13 22 40 33 39 45 47 43 44 45 50 45 47 53 55 58 60 62 59 62 66 67 69 69 66 65 61 52 47 45 44 47 49 52 51 51 50 52 54 56 56 55
9 11 6 1 4 5 9 21 20 26 31 43 42 42 47 53 43 17 17 24 29 37 60 63 62 60 61 64 63 66 64 66 64 63 61 55 54 52 51 50 54 59 59 60 62 62 62 59 63
3 12 9 6 4 6 8 15 13 9 16 30 24 25 26 31 34 26 27 32 38 32 33 57 56 58 57 60 65 65 64 62 64 63 67 59 58 53 54 52 56 61 66 69 68 72 72 71 71
11 12 11 9 7 7 6 9 13 10 18 11 11 2 9 9 8 7 6 9 18 23 20 33 46 51 54 57 63 68 69 67 62 60 56 55 54 51 58 48 57 55 56 61 56 66 68 80 84
8 12 11 8 8 5 6 2 14 5 13 7 6 11 9 11 13 11 12 11 8 7 12 18 26 37 46 51 57 61 65 66 61 55 52 48 47 46 45 47 60 64 63 62 69 68 68 75 91
18 13 15 10 6 3 9 10 11 9 10 4 3 10 9 9 11 14 14 14 12 9 5 5 9 14 24 34 41 48 53 55 56 57 55 53 50 46 42 41 45 49 50 52 57 61 64 67 73
4 12 5 4 3 11 4 2 16 9 10 6 9 9 9 12 13 13 11 9 8 5 3 4 3 4 10 17 23 26 30 34 37 40 43 44 42 41 36 39 46 47 47 49 54 62 66 66 73
13 12 11 15 9 5 4 13 12 6 4 5 6 6 13 13 12 10 8 5 3 3 4 5 4 2 5 11 18 21 23 25 27 29 30 33 34 33 34 42 43 47 51 56 57 60 65 67 68
10 9 11 15 5 6 8 13 19 2 5 9 13 19 19 18 14 12 8 4 4 5 4 2 5 6 8 10 11 12 15 17 19 22 25 26 27 26 29 34 40 43 46 50 53 59 66 69 74
8 16 7 5 6 7 8 10 12 8 15 12 11 17 20 20 18 17 14 12 11 12 14 13 13 12 12 12 12 11 11 11 11 10 10 13 15 17 21 23 27 32 37 42 48 56 62 68 73
6 6 7 9 9 12 3 12 13 11 15 18 19 18 18 23 26 27 25 24 23 24 25 27 27 25 24 22 19 16 13 10 6 5 8 12 15 20 25 30 34 38 41 45 50 56 61 68 71
2 13 13 10 10 3 5 15 2 11 23 35 27 23 25 25 27 29 29 28 28 29 27 26 24 21 19 16 11 7 4 3 7 11 18 24 28 33 37 40 44 46 48 52 57 60 63 67 70
Wind_Direction_500mb
242 227 241 282 53 63 170 221 179 141 145 169 148 169 189 138 160 197 157 162 159 157 155 154 153 142 134 121 111 106 102 100 108 108 92 88 83 76 82 87 89 87 93 96 92 102 104 111 117
212 194 182 103 91 78 257 233 185 188 152 135 128 141 164 124 126 146 153 164 165 160 156 156 152 146 135 120 112 106 102 101 101 102 96 90 85 73 73 80 83 87 96 97 89 90 94 100 105
194 175 149 96 111 175 201 202 176 149 142 133 137 146 124 123 135 153 162 165 168 170 165 160 153 150 141 126 117 109 102 103 105 108 107 98 89 78 73 78 74 76 96 99 91 88 90 93 96
173 146 75 87 214 229 185 179 163 136 195 170 156 106 111 121 137 158 163 169 170 173 169 166 159 156 148 136 128 120 114 111 108 109 118 108 88 79 71 69 76 71 87 103 84 85 84 88 90
172 141 72 86 262 284 277 180 155 142 160 166 167 167 135 144 151 158 169 171 174 174 173 171 168 164 156 145 135 129 121 115 109 113 127 117 98 78 66 63 66 76 90 98 90 81 80 86 91
136 117 74 178 247 316 324 173 154 138 172 162 162 148 143 153 159 172 175 176 178 180 178 179 177 174 169 159 151 145 134 124 116 118 130 126 99 74 66 62 58 80 92 102 88 81 82 87 89
136 89 158 155 167 25 182 161 154 172 167 217 173 136 158 164 159 158 169 177 183 186 188 187 187 183 183 178 170 164 158 148 138 135 139 133 94 54 40 43 40 84 94 96 92 86 87 88 93
134 91 104 184 175 208 169 165 215 178 193 190 178 194 183 177 165 169 179 180 185 191 196 198 197 195 195 193 188 184 182 177 170 165 163 156 141 88 41 34 31 73 93 103 104 102 98 95 97
129 72 145 188 155 202 167 173 195 202 185 182 193 191 149 170 177 177 179 183 187 194 201 205 207 206 205 205 204 199 198 197 192 190 187 185 186 266 351 7 42 103 112 120 121 116 105 92 87
101 108 199 186 188 183 173 178 172 180 192 214 212 205 190 178 185 187 187 188 192 197 200 207 212 214 214 214 216 215 214 214 212 211 213 214 216 245 293 297 248 165 144 143 133 126 114 99 89
119 160 169 184 199 160 160 197 178 167 236 221 218 210 207 190 192 196 199 201 201 200 204 209 213 216 219 221 222 223 224 224 224 223 224 227 226 245 281 269 225 197 160 141 139 134 120 104 92
99 114 140 145 147 149 163 157 214 209 225 213 229 218 216 207 203 205 205 206 208 208 211 214 217 218 222 226 229 230 231 231 230 230 230 231 233 237 261 237 187 176 167 157 155 141 131 116 96
102 146 139 145 144 134 151 198 237 245 237 234 232 218 217 218 217 214 214 212 216 217 216 218 219 221 223 228 230 233 235 236 236 235 235 234 233 235 232 217 190 181 180 180 170 161 162 150 138
133 118 122 149 157 125 153 225 282 254 230 234 231 225 220 220 222 220 220 219 222 223 224 222 222 223 223 227 229 231 238 241 239 239 239 239 238 235 233 233 232 199 195 194 202 212 222 224 229
112 83 60 353 240 92 134 276 233 237 235 243 223 227 226 224 223 227 231 231 232 234 232 232 231 229 229 231 235 237 241 243 245 244 241 240 239 238 235 232 235 223 216 214 224 237 258 263 266
80 53 124 262 199 260 132 260 279 298 234 245 235 228 231 236 240 238 236 237 236 238 237 237 237 238 239 240 242 242 245 249 250 250 246 241 240 239 237 235 237 240 249 240 246 261 268 276 279
19 171 185 300 196 304 166 259 271 29 329 246 227 224 233 241 244 240 237 238 238 241 242 240 238 239 241 243 246 249 249 252 255 253 252 247 241 240 240 240 241 242 237 250 252 261 255 258 258
180 160 196 230 230 206 228 259 282 280 284 276 268 263 273 275 265 263 257 249 243 242 242 241 239 240 241 243 245 247 248 249 251 254 253 251 248 242 242 243 242 246 246 247 247 247 255 257 259
131 126 164 216 358 224 245 268 269 283 283 268 264 269 276 276 282 288 270 254 252 244 237 234 236 235 237 237 238 240 244 245 246 251 254 254 252 251 249 251 247 247 253 256 257 255 258 261 264
118 123 210 38 13 186 359 289 266 263 258 264 267 271 278 286 289 284 250 231 245 253 239 233 234 234 236 239 241 242 246 249 252 253 255 257 255 254 251 253 254 254 254 254 254 255 256 261 260
119 148 187 171 58 34 340 297 314 298 270 273 272 281 286 286 281 272 266 257 248 247 241 226 231 235 237 239 240 241 241 244 247 250 255 254 259 258 259 263 257 254 254 256 260 258 256 254 258
171 192 146 128 92 233 350 276 293 300 302 282 294 5 331 307 288 230 258 240 225 238 236 228 230 234 236 238 240 242 241 241 248 251 256 259 260 262 256 266 265 262 261 258 263 271 269 259 259
186 127 126 89 103 71 310 64 270 4 282 269 155 27 45 84 103 102 93 101 135 181 214 225 230 235 235 235 239 242 243 246 248 251 255 258 264 263 265 268 265 267 266 264 260 267 270 270 262
155 85 58 61 83 305 234 172 271 205 219 172 312 16 30 102 101 105 99 94 100 115 145 205 237 231 227 233 238 240 242 245 248 251 255 261 264 269 267 268 269 271 271 276 276 279 279 281 277
87 96 41 9 347 227 346 183 250 250 237 222 305 359 51 116 123 120 118 114 106 114 123 139 143 192 200 209 220 230 234 238 245 250 256 262 267 267 271 271 269 273 276 274 276 279 277 275 278
191 157 152 195 202 246 52 232 247 165 53 219 216 91 93 106 109 107 98 76 37 358 326 311 290 206 190 190 188 194 206 217 228 238 246 251 253 253 248 256 261 261 267 265 269 272 274 275 277
194 191 155 107 28 51 218 283 300 311 162 128 129 113 95 92 95 94 84 65 27 358 354 61 129 152 152 158 168 181 199 214 228 241 247 252 255 255 256 257 260 264 267 268 270 267 267 269 271
164 157 88 7 135 242 271 271 234 202 190 167 139 116 108 103 107 108 106 101 93 92 86 88 93 104 116 126 139 151 169 179 190 202 233 242 251 261 266 269 272 274 276 276 276 277 277 277 277
139 176 66 125 150 176 223 254 217 216 170 168 161 142 131 116 105 100 97 99 103 103 102 97 99 100 106 107 110 117 122 130 155 200 250 266 272 277 280 280 280 281 281 281 280 279 279 279 280
299 186 155 150 212 238 157 254 309 234 177 165 155 147 138 124 113 107 103 104 111 111 109 106 100 102 98 96 91 81 54 320 292 281 281 285 288 290 292 292 290 287 284 284 283 281 279 278 278
Wind_Speed_850mb
8 7 5 3 6 8 3 6 0 6 7 7 18 10 11 8 8 5 22 45 43 42 38 32 28 23 20 20 20 20 20 19 21 20 20 22 24 28 29 27 28 34 34 32 28 30 26 24 23
9 8 6 6 7 4 6 3 10 9 8 20 16 12 5 4 10 13 41 45 46 38 37 32 29 24 20 19 19 20 20 19 19 19 18 21 22 25 29 24 25 29 35 31 30 30 28 26 25
11 13 7 8 6 7 8 8 9 9 28 12 8 3 4 7 10 30 36 40 49 38 33 30 28 25 21 19 18 19 18 18 18 19 21 17 21 23 27 23 21 22 29 29 26 28 27 27 27
14 11 9 7 6 5 4 7 12 19 8 8 9 7 6 9 16 25 39 39 47 40 33 30 28 24 21 19 18 18 17 16 17 17 20 16 17 19 22 22 18 19 24 23 25 25 26 27 27
18 7 8 6 4 4 5 6 25 9 9 11 13 7 6 9 18 29 36 40 44 42 35 30 27 24 21 18 17 15 15 14 15 16 18 15 13 14 16 17 14 15 18 19 21 23 24 26 28
7 6 8 4 5 3 1 15 16 8 9 12 9 16 9 19 20 23 39 37 41 41 36 32 28 25 21 18 16 14 13 12 12 13 15 14 9 9 11 13 11 12 13 13 16 20 22 24 25
11 7 9 8 4 2 8 20 12 14 11 11 10 9 11 25 25 26 36 34 39 39 35 34 30 28 23 18 16 14 12 11 10 10 10 9 5 7 9 11 9 9 10 12 15 17 20 22 23
11 11 8 4 8 7 11 17 5 14 11 11 15 7 8 33 28 32 36 37 37 41 37 35 33 31 29 24 20 17 14 12 10 9 7 6 4 2 5 7 6 7 9 10 13 15 17 18 18
13 9 6 12 13 7 17 10 8 8 8 16 17 7 9 31 34 35 41 46 44 44 44 40 38 35 32 28 24 21 19 16 13 11 9 7 4 1 3 3 2 4 6 9 12 14 13 13 13
9 8 16 11 9 10 22 12 19 8 9 13 16 18 12 29 36 38 46 55 55 51 50 46 43 40 37 33 30 26 23 20 16 13 11 9 7 4 4 4 2 3 5 8 10 11 10 10 8
7 10 11 10 9 14 20 8 16 13 7 22 29 28 23 30 37 36 39 46 52 51 51 49 47 45 42 40 36 33 30 26 23 19 17 14 11 7 5 4 4 4 5 7 9 7 7 7 6
11 5 14 12 12 13 15 14 8 21 10 8 21 21 29 31 37 38 37 41 46 48 47 45 45 47 46 43 41 39 37 34 30 26 23 20 16 11 5 3 6 7 7 7 6 7 6 5 5
7 10 11 12 13 11 11 7 10 23 30 25 12 23 29 33 33 35 35 36 40 43 41 42 43 45 45 45 45 44 43 40 35 32 29 26 22 17 11 5 6 11 9 8 8 6 5 4 3
8 16 9 8 7 6 6 3 2 6 12 34 30 24 27 33 34 37 42 39 42 41 42 40 41 41 42 41 38 36 38 41 41 39 35 31 28 24 21 16 7 12 11 10 11 9 8 6 5
17 10 7 1 3 3 3 7 17 22 14 8 22 31 29 30 37 38 36 40 38 40 42 44 43 43 45 44 40 39 36 33 38 41 41 38 35 32 29 27 20 14 15 15 12 12 12 13 13
11 10 8 2 4 1 7 15 6 3 18 27 22 22 30 36 38 34 38 41 44 45 48 47 48 50 49 49 47 44 43 40 35 35 38 43 42 39 38 35 30 26 22 23 21 20 21 22 23
13 8 6 5 7 0 5 11 4 3 4 9 16 21 19 21 28 29 33 42 44 47 48 51 53 55 54 54 54 52 51 49 44 39 37 35 42 44 44 41 37 37 35 31 33 35 35 32 32
12 5 4 7 4 1 5 17 17 28 21 21 25 29 32 34 35 32 36 39 41 45 52 55 57 57 59 59 60 61 61 60 56 51 44 40 39 43 46 47 45 47 47 49 46 49 46 45 42
14 9 7 4 2 4 10 13 22 40 33 39 45 47 43 44 45 50 45 47 53 55 58 60 62 59 62 66 67 69 69 66 65 61 52 47 45 44 47 49 52 51 51 50 52 54 56 56 55
9 11 6 1 4 5 9 21 20 26 31 43 42 42 47 53 43 17 17 24 29 37 60 63 62 60 61 64 63 66 64 66 64 63 61 55 54 52 51 50 54 59 59 60 62 62 62 59 63
3 12 9 6 4 6 8 15 13 9 16 30 24 25 26 31 34 26 27 32 38 32 33 57 56 58 57 60 65 65 64 62 64 63 67 59 58 53 54 52 56 61 66 69 68 72 72 71 71
11 12 11 9 7 7 6 9 13 10 18 11 11 2 9 9 8 7 6 9 18 23 20 33 46 51 54 57 63 68 69 67 62 60 56 55 54 51 58 48 57 55 56 61 56 66 68 80 84
8 12 11 8 8 5 6 2 14 5 13 7 6 11 9 11 13 11 12 11 8 7 12 18 26 37 46 51 57 61 65 66 61 55 52 48 47 46 45 47 60 64 63 62 69 68 68 75 91
18 13 15 10 6 3 9 10 11 9 10 4 3 10 9 9 11 14 14 14 12 9 5 5 9 14 24 34 41 48 53 55 56 57 55 53 50 46 42 41 45 49 50 52 57 61 64 67 73
4 12 5 4 3 11 4 2 16 9 10 6 9 9 9 12 13 13 11 9 8 5 3 4 3 4 10 17 23 26 30 34 37 40 43 44 42 41 36 39 46 47 47 49 54 62 66 66 73
13 12 11 15 9 5 4 13 12 6 4 5 6 6 13 13 12 10 8 5 3 3 4 5 4 2 5 11 18 21 23 25 27 29 30 33 34 33 34 42 43 47 51 56 57 60 65 67 68
10 9 11 15 5 6 8 13 19 2 5 9 13 19 19 18 14 12 8 4 4 5 4 2 5 6 8 10 11 12 15 17 19 22 25 26 27 26 29 34 40 43 46 50 53 59 66 69 74
8 16 7 5 6 7 8 10 12 8 15 12 11 17 20 20 18 17 14 12 11 12 14 13 13 12 12 12 12 11 11 11 11 10 10 13 15 17 21 23 27 32 37 42 48 56 62 68 73
6 6 7 9 9 12 3 12 13 11 15 18 19 18 18 23 26 27 25 24 23 24 25 27 27 25 24 22 19 16 13 10 6 5 8 12 15 20 25 30 34 38 41 45 50 56 61 68 71
2 13 13 10 10 3 5 15 2 11 23 35 27 23 25 25 27 29 29 28 28 29 27 26 24 21 19 16 11 7 4 3 7 11 18 24 28 33 37 40 44 46 48 52 57 60 63 67 70
Wind_Direction_850mb
242 227 241 282 53 63 170 221 179 141 145 169 148 169 189 138 160 197 157 162 159 157 155 154 153 142 134 121 111 106 102 100 108 108 92 88 83 76 82 87 89 87 93 96 92 102 104 111 117
212 194 182 103 91 78 257 233 185 188 152 135 128 141 164 124 126 146 153 164 165 160 156 156 152 146 135 120 112 106 102 101 101 102 96 90 85 73 73 80 83 87 96 97 89 90 94 100 105
194 175 149 96 111 175 201 202 176 149 142 133 137 146 124 123 135 153 162 165 168 170 165 160 153 150 141 126 117 109 102 103 105 108 107 98 89 78 73 78 74 76 96 99 91 88 90 93 96
173 146 75 87 214 229 185 179 163 136 195 170 156 106 111 121 137 158 163 169 170 173 169 166 159 156 148 136 128 120 114 111 108 109 118 108 88 79 71 69 76 71 87 103 84 85 84 88 90
172 141 72 86 262 284 277 180 155 142 160 166 167 167 135 144 151 158 169 171 174 174 173 171 168 164 156 145 135 129 121 115 109 113 127 117 98 78 66 63 66 76 90 98 90 81 80 86 91
136 117 74 178 247 316 324 173 154 138 172 162 162 148 143 153 159 172 175 176 178 180 178 179 177 174 169 159 151 145 134 124 116 118 130 126 99 74 66 62 58 80 92 102 88 81 82 87 89
136 89 158 155 167 25 182 161 154 172 167 217 173 136 158 164 159 158 169 177 183 186 188 187 187 183 183 178 170 164 158 148 138 135 139 133 94 54 40 43 40 84 94 96 92 86 87 88 93
134 91 104 184 175 208 169 165 215 178 193 190 178 194 183 177 165 169 179 180 185 191 196 198 197 195 195 193 188 184 182 177 170 165 163 156 141 88 41 34 31 73 93 103 104 102 98 95 97
129 72 145 188 155 202 167 173 195 202 185 182 193 191 149 170 177 177 179 183 187 194 201 205 207 206 205 205 204 199 198 197 192 190 187 185 186 266 351 7 42 103 112 120 121 116 105 92 87
101 108 199 186 188 183 173 178 172 180 192 214 212 205 190 178 185 187 187 188 192 197 200 207 212 214 214 214 216 215 214 214 212 211 213 214 216 245 293 297 248 165 144 143 133 126 114 99 89
119 160 169 184 199 160 160 197 178 167 236 221 218 210 207 190 192 196 199 201 201 200 204 209 213 216 219 221 222 223 224 224 224 223 224 227 226 245 281 269 225 197 160 141 139 134 120 104 92
99 114 140 145 147 149 163 157 214 209 225 213 229 218 216 207 203 205 205 206 208 208 211 214 217 218 222 226 229 230 231 231 230 230 230 231 233 237 261 237 187 176 167 157 155 141 131 116 96
102 146 139 145 144 134 151 198 237 245 237 234 232 218 217 218 217 214 214 212 216 217 216 218 219 221 223 228 230 233 235 236 236 235 235 234 233 235 232 217 190 181 180 180 170 161 162 150 138
133 118 122 149 157 125 153 225 282 254 230 234 231 225 220 220 222 220 220 219 222 223 224 222 222 223 223 227 229 231 238 241 239 239 239 239 238 235 233 233 232 199 195 194 202 212 222 224 229
112 83 60 353 240 92 134 276 233 237 235 243 223 227 226 224 223 227 231 231 232 234 232 232 231 229 229 231 235 237 241 243 245 244 241 240 239 238 235 232 235 223 216 214 224 237 258 263 266
80 53 124 262 199 260 132 260 279 298 234 245 235 228 231 236 240 238 236 237 236 238 237 237 237 238 239 240 242 242 245 249 250 250 246 241 240 239 237 235 237 240 249 240 246 261 268 276 279
19 171 185 300 196 304 166 259 271 29 329 246 227 224 233 241 244 240 237 238 238 241 242 240 238 239 241 243 246 249 249 252 255 253 252 247 241 240 240 240 241 242 237 250 252 261 255 258 258
180 160 196 230 230 206 228 259 282 280 284 276 268 263 273 275 265 263 257 249 243 242 242 241 239 240 241 243 245 247 248 249 251 254 253 251 248 242 242 243 242 246 246 247 247 247 255 257 259
131 126 164 216 358 224 245 268 269 283 283 268 264 269 276 276 282 288 270 254 252 244 237 234 236 235 237 237 238 240 244 245 246 251 254 254 252 251 249 251 247 247 253 256 257 255 258 261 264
118 123 210 38 13 186 359 289 266 263 258 264 267 271 278 286 289 284 250 231 245 253 239 233 234 234 236 239 241 242 246 249 252 253 255 257 255 254 251 253 254 254 254 254 254 255 256 261 260
119 148 187 171 58 34 340 297 314 298 270 273 272 281 286 286 281 272 266 257 248 247 241 226 231 235 237 239 240 241 241 244 247 250 255 254 259 258 259 263 257 254 254 256 260 258 256 254 258
171 192 146 128 92 233 350 276 293 300 302 282 294 5 331 307 288 230 258 240 225 238 236 228 230 234 236 238 240 242 241 241 248 251 256 259 260 262 256 266 265 262 261 258 263 271 269 259 259
186 127 126 89 103 71 310 64 270 4 282 269 155 27 45 84 103 102 93 101 135 181 214 225 230 235 235 235 239 242 243 246 248 251 255 258 264 263 265 268 265 267 266 264 260 267 270 270 262
155 85 58 61 83 305 234 172 271 205 219 172 312 16 30 102 101 105 99 94 100 115 145 205 237 231 227 233 238 240 242 245 248 251 255 261 264 269 267 268 269 271 271 276 276 279 279 281 277
87 96 41 9 347 227 346 183 250 250 237 222 305 359 51 116 123 120 118 114 106 114 123 139 143 192 200 209 220 230 234 238 245 250 256 262 267 267 271 271 269 273 276 274 276 279 277 275 278
191 157 152 195 202 246 52 232 247 165 53 219 216 91 93 106 109 107 98 76 37 358 326 311 290 206 190 190 188 194 206 217 228 238 246 251 253 253 248 256 261 261 267 265 269 272 274 275 277
194 191 155 107 28 51 218 283 300 311 162 128 129 113 95 92 95 94 84 65 27 358 354 61 129 152 152 158 168 181 199 214 228 241 247 252 255 255 256 257 260 264 267 268 270 267 267 269 271
164 157 88 7 135 242 271 271 234 202 190 167 139 116 108 103 107 108 106 101 93 92 86 88 93 104 116 126 139 151 169 179 190 202 233 242 251 261 266 269 272 274 276 276 276 277 277 277 277
139 176 66 125 150 176 223 254 217 216 170 168 161 142 131 116 105 100 97 99 103 103 102 97 99 100 106 107 110 117 122 130 155 200 250 266 272 277 280 280 280 281 281 281 280 279 279 279 280
299 186 155 150 212 238 157 254 309 234 177 165 155 147 138 124 113 107 103 104 111 111 109 106 100 102 98 96 91 81 54 320 292 281 281 285 288 290 292 292 290 287 284 284 283 281 279 278 278